�������l�o���
Date,Time,MP-1(��Sv/h),MP-2(��Sv/h),MP-3(��Sv/h),MP-4(��Sv/h),MP-5(��Sv/h),MP-6(��Sv/h),MP-7(��Sv/h),MP-8(��Sv/h),����,����(m/s),���J
2017/04/06,00:00,1.032,1.666,1.130,1.973,1.378,0.548,1.001,0.928,���쐼,0.9,��
2017/04/06,00:10,1.031,1.668,1.130,1.971,1.378,0.547,1.002,0.928,��,1.2,��
2017/04/06,00:20,1.030,1.664,1.127,1.971,1.378,0.546,1.000,0.929,��쓌,0.9,��
2017/04/06,00:30,1.030,1.667,1.128,1.972,1.381,0.548,1.001,0.928,��쓌,0.9,��
2017/04/06,00:40,1.033,1.668,1.130,1.974,1.377,0.546,1.003,0.929,��쐼,1.4,��
2017/04/06,00:50,1.030,1.667,1.130,1.974,1.379,0.547,1.001,0.929,��쐼,1.5,��
2017/04/06,01:00,1.031,1.664,1.128,1.974,1.378,0.547,1.001,0.928,��쐼,1.5,��
2017/04/06,01:10,1.029,1.665,1.130,1.976,1.378,0.548,1.002,0.929,��,1.2,��
2017/04/06,01:20,1.031,1.664,1.129,1.973,1.377,0.547,1.001,0.930,��,2.5,��
2017/04/06,01:30,1.032,1.663,1.126,1.974,1.378,0.547,1.001,0.929,��쐼,3.6,��
2017/04/06,01:40,1.030,1.664,1.128,1.973,1.377,0.547,0.999,0.928,��,3.7,��
2017/04/06,01:50,1.032,1.667,1.126,1.973,1.379,0.546,0.999,0.929,��,4.1,��
2017/04/06,02:00,1.032,1.666,1.127,1.973,1.377,0.547,1.000,0.928,��,4.0,��
2017/04/06,02:10,1.031,1.666,1.129,1.974,1.377,0.547,1.001,0.929,��,2.9,��
2017/04/06,02:20,1.031,1.664,1.129,1.972,1.376,0.548,1.000,0.929,��쓌,3.0,��
2017/04/06,02:30,1.032,1.664,1.128,1.974,1.380,0.547,1.002,0.928,��,2.9,��
2017/04/06,02:40,1.031,1.667,1.129,1.974,1.378,0.546,1.001,0.927,��,2.6,��
2017/04/06,02:50,1.030,1.664,1.128,1.973,1.377,0.548,1.002,0.928,��쐼,2.9,��
2017/04/06,03:00,1.029,1.664,1.127,1.971,1.380,0.546,1.001,0.927,��쐼,3.2,��
2017/04/06,03:10,1.030,1.663,1.128,1.975,1.378,0.547,1.002,0.929,��쐼,3.4,��
2017/04/06,03:20,1.029,1.665,1.129,1.973,1.380,0.546,1.001,0.927,��,3.7,��
2017/04/06,03:30,1.030,1.666,1.130,1.973,1.379,0.546,1.001,0.930,��쐼,3.3,��
2017/04/06,03:40,1.030,1.663,1.128,1.975,1.378,0.546,1.001,0.928,��쐼,2.6,��
2017/04/06,03:50,1.031,1.662,1.130,1.975,1.378,0.547,1.000,0.927,��,3.0,��
2017/04/06,04:00,1.028,1.665,1.127,1.975,1.376,0.546,1.000,0.928,��쐼,2.5,��
2017/04/06,04:10,1.031,1.663,1.129,1.970,1.380,0.547,1.000,0.928,��,3.0,��
2017/04/06,04:20,1.029,1.663,1.129,1.974,1.378,0.546,1.001,0.927,��쓌,3.8,��
2017/04/06,04:30,1.027,1.665,1.125,1.971,1.376,0.546,0.999,0.929,��,5.8,��
2017/04/06,04:40,1.030,1.664,1.126,1.972,1.377,0.546,1.001,0.929,��,4.9,��
2017/04/06,04:50,1.031,1.665,1.126,1.972,1.377,0.545,0.999,0.928,��쐼,3.7,��
2017/04/06,05:00,1.028,1.664,1.124,1.973,1.378,0.547,1.000,0.928,��쐼,3.1,��
2017/04/06,05:10,1.030,1.666,1.124,1.973,1.375,0.546,1.001,0.927,��,3.6,��
2017/04/06,05:20,1.028,1.663,1.125,1.971,1.375,0.546,1.000,0.929,��,4.5,��
2017/04/06,05:30,1.031,1.662,1.125,1.972,1.378,0.546,0.998,0.926,��쓌,5.6,��
2017/04/06,05:40,1.027,1.663,1.127,1.971,1.377,0.546,1.000,0.928,��,5.9,��
2017/04/06,05:50,1.029,1.666,1.127,1.973,1.375,0.546,1.000,0.928,��,7.3,��
2017/04/06,06:00,1.028,1.665,1.127,1.971,1.377,0.545,1.000,0.929,��,8.0,��
2017/04/06,06:10,1.027,1.662,1.127,1.973,1.377,0.545,1.000,0.929,��,8.5,��
2017/04/06,06:20,1.028,1.664,1.128,1.973,1.377,0.546,0.999,0.929,��,7.8,��
2017/04/06,06:30,1.029,1.666,1.127,1.974,1.378,0.546,1.000,0.928,��,8.4,��
2017/04/06,06:40,1.026,1.667,1.130,1.976,1.375,0.546,0.999,0.929,��,7.9,��
2017/04/06,06:50,1.030,1.666,1.128,1.974,1.379,0.546,1.001,0.928,��,7.0,��
2017/04/06,07:00,1.029,1.669,1.129,1.975,1.379,0.545,1.000,0.929,��,8.0,��
2017/04/06,07:10,1.029,1.667,1.127,1.973,1.379,0.546,1.002,0.929,��,8.1,��
2017/04/06,07:20,1.030,1.669,1.128,1.975,1.378,0.546,1.002,0.929,��,7.8,��
2017/04/06,07:30,1.029,1.667,1.129,1.974,1.378,0.546,1.002,0.929,��,7.7,��
2017/04/06,07:40,1.030,1.669,1.129,1.973,1.379,0.545,1.003,0.929,��,7.7,��
2017/04/06,07:50,1.027,1.669,1.128,1.978,1.379,0.543,1.002,0.930,��,8.4,��
2017/04/06,08:00,1.029,1.667,1.130,1.976,1.380,0.545,1.002,0.932,��,8.3,��
2017/04/06,08:10,1.031,1.671,1.131,1.977,1.381,0.545,1.003,0.930,��,8.7,��
2017/04/06,08:20,1.032,1.669,1.133,1.979,1.378,0.544,1.002,0.930,��,7.6,��
2017/04/06,08:30,1.032,1.662,1.131,1.979,1.380,0.545,1.003,0.932,��,8.8,��
2017/04/06,08:40,1.033,1.664,1.131,1.979,1.380,0.545,1.001,0.929,��,10.6,��
2017/04/06,08:50,1.032,1.664,1.132,1.979,1.378,0.543,1.002,0.929,��쓌,12.4,��
2017/04/06,09:00,1.032,1.661,1.134,1.980,1.381,0.545,1.001,0.927,��쓌,13.1,��
2017/04/06,09:10,1.033,1.663,1.131,1.980,1.378,0.545,1.002,0.926,��쓌,14.9,��
2017/04/06,09:20,1.030,1.664,1.132,1.978,1.378,0.547,0.999,0.928,��쓌,13.5,��
2017/04/06,09:30,1.032,1.662,1.130,1.979,1.379,0.546,1.002,0.927,��,11.8,��
2017/04/06,09:40,1.033,1.666,1.130,1.981,1.379,0.547,0.999,0.927,��,12.7,��
2017/04/06,09:50,1.032,1.669,1.134,1.978,1.382,0.547,1.000,0.927,��,12.4,��
2017/04/06,10:00,1.032,1.664,1.132,1.981,1.381,0.547,1.001,0.927,��쓌,14.2,��
2017/04/06,10:10,1.033,1.665,1.135,1.979,1.382,0.547,1.004,0.926,��쓌,15.5,��
2017/04/06,10:20,1.034,1.666,1.133,1.976,1.380,0.548,1.003,0.927,��쓌,12.7,��
2017/04/06,10:30,1.033,1.669,1.135,1.982,1.382,0.548,1.001,0.928,��,14.9,��
2017/04/06,10:40,1.033,1.673,1.134,1.981,1.381,0.549,1.003,0.926,��,14.6,��
2017/04/06,10:50,1.033,1.669,1.133,1.982,1.383,0.548,1.003,0.928,��쓌,14.1,��
2017/04/06,11:00,1.035,1.671,1.133,1.981,1.381,0.549,1.003,0.926,��쓌,13.1,��
2017/04/06,11:10,1.031,1.672,1.133,1.983,1.382,0.548,1.003,0.930,��쓌,13.5,��
2017/04/06,11:20,1.034,1.670,1.133,1.984,1.384,0.549,1.002,0.927,��쓌,15.2,��
2017/04/06,11:30,1.035,1.670,1.131,1.983,1.384,0.547,1.004,0.927,��쓌,16.0,��
2017/04/06,11:40,1.035,1.673,1.131,1.983,1.386,0.548,1.001,0.927,��쓌,14.1,��
2017/04/06,11:50,1.036,1.674,1.136,1.987,1.388,0.549,1.002,0.927,��,13.0,��
2017/04/06,12:00,1.035,1.674,1.131,1.985,1.386,0.549,1.003,0.928,��쓌,13.8,��
2017/04/06,12:10,1.035,1.673,1.135,1.982,1.387,0.548,1.002,0.928,��,16.4,��
2017/04/06,12:20,1.034,1.671,1.133,1.978,1.386,0.549,1.002,0.927,��,16.4,��
2017/04/06,12:30,1.032,1.671,1.134,1.982,1.387,0.550,1.007,0.929,��쓌,12.7,�L
2017/04/06,12:40,1.035,1.671,1.133,1.982,1.387,0.549,1.005,0.927,��,14.1,��
2017/04/06,12:50,1.036,1.674,1.133,1.987,1.386,0.551,1.006,0.929,��,12.4,��
2017/04/06,13:00,1.035,1.671,1.135,1.986,1.388,0.549,1.006,0.927,��쓌,16.0,��
2017/04/06,13:10,1.036,1.672,1.134,1.986,1.384,0.550,1.004,0.928,��,16.6,��
2017/04/06,13:20,1.036,1.672,1.136,1.986,1.390,0.549,1.004,0.926,��쓌,15.3,��
2017/04/06,13:30,1.039,1.672,1.135,1.986,1.388,0.548,1.004,0.928,��,13.6,��
2017/04/06,13:40,1.037,1.670,1.135,1.986,1.386,0.546,1.002,0.929,��,13.8,��
2017/04/06,13:50,1.037,1.670,1.135,1.987,1.387,0.549,1.005,0.932,��,13.8,��
2017/04/06,14:00,1.037,1.672,1.135,1.986,1.388,0.548,1.004,0.928,��,15.8,��
2017/04/06,14:10,1.035,1.675,1.134,1.990,1.391,0.549,1.005,0.928,��,15.2,��
2017/04/06,14:20,1.037,1.677,1.134,1.989,1.390,0.546,1.004,0.927,��쓌,13.5,��
2017/04/06,14:30,1.036,1.678,1.134,1.987,1.389,0.548,1.006,0.929,��,11.6,��
2017/04/06,14:40,1.035,1.677,1.133,1.986,1.390,0.548,1.003,0.927,��,13.9,��
2017/04/06,14:50,1.037,1.674,1.135,1.989,1.390,0.549,1.004,0.930,��쓌,13.6,��
2017/04/06,15:00,1.038,1.677,1.137,1.989,1.386,0.548,1.005,0.929,��,12.4,��
2017/04/06,15:10,1.038,1.675,1.136,1.987,1.388,0.548,1.004,0.929,��,12.4,��
2017/04/06,15:20,1.038,1.675,1.135,1.988,1.387,0.549,1.003,0.930,��,13.3,��
2017/04/06,15:30,1.039,1.675,1.134,1.985,1.387,0.549,1.005,0.929,��,12.7,��
2017/04/06,15:40,1.036,1.679,1.134,1.987,1.388,0.547,1.005,0.929,��,13.0,��
2017/04/06,15:50,1.038,1.677,1.135,1.987,1.388,0.549,1.005,0.928,��,14.2,��
2017/04/06,16:00,1.040,1.676,1.136,1.989,1.388,0.550,1.004,0.929,��,11.4,��
2017/04/06,16:10,1.041,1.676,1.136,1.990,1.389,0.548,1.003,0.929,��,11.6,��
2017/04/06,16:20,1.037,1.677,1.137,1.991,1.388,0.549,1.004,0.928,��,10.2,��
2017/04/06,16:30,1.040,1.679,1.140,1.986,1.388,0.550,1.004,0.930,��,11.3,��
2017/04/06,16:40,1.041,1.677,1.137,1.989,1.391,0.551,1.004,0.930,��,10.8,��
2017/04/06,16:50,1.038,1.681,1.136,1.986,1.394,0.550,1.003,0.930,��,11.6,��
2017/04/06,17:00,1.039,1.680,1.136,1.988,1.389,0.549,1.003,0.932,��,13.5,��
2017/04/06,17:10,1.036,1.677,1.137,1.988,1.387,0.550,1.002,0.930,��,13.5,��
2017/04/06,17:20,1.039,1.675,1.135,1.987,1.390,0.550,1.001,0.931,��,12.4,��
2017/04/06,17:30,1.038,1.679,1.137,1.988,1.389,0.551,1.002,0.929,��,13.1,��
2017/04/06,17:40,1.040,1.679,1.137,1.984,1.390,0.551,1.002,0.929,��,10.8,��
2017/04/06,17:50,1.041,1.682,1.136,1.987,1.387,0.551,1.003,0.932,��,9.8,��
2017/04/06,18:00,1.038,1.684,1.136,1.985,1.391,0.551,1.003,0.933,��,10.7,��
2017/04/06,18:10,1.039,1.685,1.137,1.986,1.389,0.551,1.004,0.933,��,9.6,��
2017/04/06,18:20,1.042,1.682,1.137,1.992,1.390,0.552,1.003,0.931,��,9.7,��
2017/04/06,18:30,1.042,1.682,1.137,1.989,1.392,0.552,1.004,0.933,��,9.1,��
2017/04/06,18:40,1.040,1.682,1.139,1.987,1.388,0.551,1.005,0.932,��,8.2,��
2017/04/06,18:50,1.040,1.681,1.137,1.989,1.391,0.552,1.003,0.932,��,8.6,��
2017/04/06,19:00,1.042,1.683,1.138,1.990,1.390,0.553,1.003,0.932,��,9.2,��
2017/04/06,19:10,1.039,1.682,1.136,1.988,1.392,0.552,1.005,0.931,��,7.9,��
2017/04/06,19:20,1.041,1.683,1.137,1.990,1.391,0.552,1.003,0.932,��,8.2,��
2017/04/06,19:30,1.038,1.682,1.138,1.987,1.389,0.551,1.004,0.934,��쐼,7.7,��
2017/04/06,19:40,1.039,1.683,1.138,1.988,1.393,0.552,1.003,0.933,��쐼,8.1,�L
2017/04/06,19:50,1.042,1.683,1.139,1.988,1.394,0.553,1.005,0.932,��,9.0,�L
2017/04/06,20:00,1.042,1.684,1.136,1.989,1.391,0.553,1.006,0.932,��,9.7,�L
2017/04/06,20:10,1.039,1.682,1.140,1.991,1.394,0.552,1.005,0.931,��,8.9,�L
2017/04/06,20:20,1.042,1.683,1.136,1.989,1.391,0.551,1.004,0.933,��,8.4,�L
2017/04/06,20:30,1.040,1.679,1.138,1.989,1.389,0.554,1.005,0.932,��,7.8,�L
2017/04/06,20:40,1.040,1.681,1.135,1.987,1.392,0.553,1.005,0.931,��,8.1,�L
2017/04/06,20:50,1.041,1.680,1.139,1.986,1.390,0.552,1.006,0.933,��,7.0,�L
2017/04/06,21:00,1.040,1.683,1.136,1.987,1.394,0.554,1.008,0.930,��,7.9,�L
2017/04/06,21:10,1.040,1.679,1.137,1.987,1.392,0.553,1.008,0.931,��,7.0,�L
2017/04/06,21:20,1.038,1.678,1.136,1.987,1.394,0.553,1.004,0.931,��,7.8,�L
2017/04/06,21:30,1.039,1.677,1.136,1.985,1.391,0.553,1.005,0.932,��,7.6,�L
2017/04/06,21:40,1.036,1.676,1.137,1.985,1.385,0.553,1.005,0.932,��,8.9,�L
2017/04/06,21:50,1.035,1.671,1.135,1.984,1.383,0.553,1.004,0.931,��,9.9,�L
2017/04/06,22:00,1.033,1.671,1.132,1.981,1.380,0.552,1.003,0.929,��,9.8,�L
2017/04/06,22:10,1.032,1.666,1.133,1.981,1.379,0.554,1.001,0.930,��,10.0,�L
2017/04/06,22:20,1.029,1.667,1.131,1.979,1.377,0.552,0.998,0.929,��,8.8,�L
2017/04/06,22:30,1.031,1.662,1.131,1.976,1.378,0.550,1.001,0.932,��,10.3,�L
2017/04/06,22:40,1.029,1.663,1.130,1.980,1.378,0.553,1.002,0.929,��,10.2,�L
2017/04/06,22:50,1.027,1.662,1.129,1.975,1.378,0.554,0.999,0.930,��,10.3,�L
2017/04/06,23:00,1.027,1.663,1.128,1.974,1.377,0.551,1.001,0.929,��,10.7,��
2017/04/06,23:10,1.028,1.661,1.129,1.976,1.378,0.551,1.001,0.930,��,9.4,�L
2017/04/06,23:20,1.029,1.659,1.129,1.978,1.377,0.550,1.002,0.929,��,8.9,��
2017/04/06,23:30,1.026,1.660,1.129,1.977,1.376,0.552,1.001,0.930,��,7.6,��
2017/04/06,23:40,1.026,1.664,1.128,1.977,1.378,0.551,1.002,0.930,��,6.4,��
2017/04/06,23:50,1.023,1.661,1.125,1.974,1.378,0.550,1.002,0.929,��,8.6,�L
